timestamp,wind_dir_avg,wind_spd_avg,wind_spd_max_dir,wind_spd_gust,battery_voltage,lat,long
2021-09-08 00:04:00+00:00,222.0,6.96,221.0,7.54,12.65,47.59359,-54.27349
2021-09-08 00:14:01+00:00,222.0,6.78,224.0,7.71,12.65,47.59359,-54.27349
2021-09-08 00:24:01+00:00,227.0,5.41,228.0,6.37,12.65,47.59359,-54.27349
2021-09-08 00:34:01+00:00,232.0,5.27,231.0,6.36,12.65,47.59359,-54.27349
2021-09-08 00:44:01+00:00,231.0,4.4,228.0,5.12,12.65,47.59359,-54.27349
2021-09-08 00:54:01+00:00,226.0,4.97,224.0,6.42,12.65,47.59359,-54.27349
2021-09-08 01:04:01+00:00,230.0,5.06,242.0,6.31,12.65,47.59359,-54.27349
2021-09-08 01:14:01+00:00,223.0,5.6,224.0,6.4,12.65,47.59359,-54.27349
2021-09-08 01:24:01+00:00,229.0,6.16,241.0,7.7,12.65,47.59359,-54.27349
2021-09-08 01:34:01+00:00,228.0,6.77,230.0,7.73,12.65,47.59359,-54.27349
2021-09-08 01:44:01+00:00,232.0,5.78,234.0,6.99,12.65,47.59359,-54.27349
2021-09-08 01:54:01+00:00,241.0,4.89,242.0,6.05,12.65,47.59359,-54.27349
2021-09-08 02:04:01+00:00,241.0,5.26,242.0,5.89,12.65,47.59359,-54.27349
2021-09-08 02:14:01+00:00,241.0,5.26,244.0,6.06,12.57,47.59359,-54.27349
2021-09-08 02:24:01+00:00,239.0,5.87,236.0,6.87,12.57,47.59359,-54.27349
2021-09-08 02:34:01+00:00,237.0,6.88,239.0,7.93,12.57,47.59359,-54.27349
2021-09-08 02:44:01+00:00,230.0,6.18,234.0,7.22,12.57,47.59359,-54.27349
2021-09-08 02:54:01+00:00,231.0,6.4,235.0,7.29,12.57,47.59359,-54.27349
2021-09-08 03:04:01+00:00,226.0,6.51,230.0,7.58,12.57,47.59359,-54.27349
2021-09-08 03:14:01+00:00,225.0,6.55,223.0,7.51,12.57,47.59359,-54.27349
2021-09-08 03:24:01+00:00,226.0,5.53,234.0,6.44,12.57,47.59359,-54.27349
2021-09-08 03:34:01+00:00,222.0,4.96,221.0,6.7,12.57,47.59359,-54.27349
2021-09-08 03:44:01+00:00,230.0,5.67,230.0,6.84,12.57,47.59359,-54.27349
2021-09-08 03:54:01+00:00,233.0,4.65,236.0,5.55,12.57,47.59359,-54.27349
2021-09-08 04:04:01+00:00,237.0,4.59,242.0,5.51,12.57,47.59359,-54.27349
2021-09-08 04:14:01+00:00,226.0,4.27,227.0,4.94,12.57,47.59359,-54.27349
2021-09-08 04:24:01+00:00,225.0,4.85,237.0,6.17,12.57,47.59359,-54.27349
2021-09-08 04:34:01+00:00,227.0,6.51,225.0,7.63,12.57,47.59359,-54.27349
2021-09-08 04:44:01+00:00,229.0,6.99,234.0,8.72,12.57,47.59359,-54.27349
2021-09-08 04:54:01+00:00,228.0,7.28,225.0,9.24,12.57,47.59359,-54.27349
2021-09-08 05:04:01+00:00,224.0,6.34,231.0,7.77,12.57,47.59359,-54.27349
2021-09-08 05:14:00+00:00,227.0,6.32,233.0,7.39,12.57,47.59359,-54.27349
2021-09-08 05:24:00+00:00,220.0,5.54,214.0,7.34,12.57,47.59359,-54.27349
2021-09-08 05:34:00+00:00,223.0,7.69,222.0,8.67,12.57,47.59359,-54.27349
2021-09-08 05:44:00+00:00,223.0,8.06,225.0,10.19,12.57,47.59359,-54.27349
2021-09-08 05:54:00+00:00,230.0,6.82,231.0,7.96,12.57,47.59359,-54.27349
2021-09-08 06:04:00+00:00,226.0,7.01,225.0,8.57,12.57,47.59359,-54.27349
2021-09-08 06:14:00+00:00,224.0,8.5,225.0,10.0,12.57,47.59359,-54.27349
2021-09-08 06:24:00+00:00,228.0,7.95,232.0,9.67,12.57,47.59359,-54.27349
2021-09-08 06:34:00+00:00,227.0,8.35,228.0,9.8,12.57,47.59359,-54.27349
2021-09-08 06:44:00+00:00,229.0,8.27,232.0,9.64,12.57,47.59359,-54.27349
2021-09-08 06:54:00+00:00,233.0,8.16,229.0,9.51,12.57,47.59359,-54.27349
2021-09-08 07:04:00+00:00,230.0,8.64,232.0,9.8,12.57,47.59359,-54.27349
2021-09-08 07:14:01+00:00,229.0,8.08,232.0,9.2,12.49,47.59359,-54.27349
2021-09-08 07:24:01+00:00,232.0,8.24,234.0,9.77,12.49,47.59359,-54.27349
2021-09-08 07:34:01+00:00,233.0,8.66,232.0,10.24,12.49,47.59359,-54.27349
2021-09-08 07:44:01+00:00,231.0,8.71,234.0,9.84,12.49,47.59359,-54.27349
2021-09-08 07:54:01+00:00,235.0,8.43,232.0,9.95,12.49,47.59359,-54.27349
2021-09-08 08:04:01+00:00,237.0,8.69,243.0,9.71,12.49,47.59359,-54.27349
2021-09-08 08:14:01+00:00,241.0,8.51,242.0,9.62,12.41,47.59359,-54.27349
2021-09-08 08:24:01+00:00,234.0,8.27,232.0,9.3,12.41,47.59359,-54.27349
2021-09-08 08:34:01+00:00,235.0,8.13,239.0,9.5,12.41,47.59359,-54.27349
2021-09-08 08:44:01+00:00,234.0,8.53,239.0,9.54,12.41,47.59359,-54.27349
2021-09-08 08:54:01+00:00,230.0,8.57,230.0,10.33,12.41,47.59359,-54.27349
2021-09-08 09:04:01+00:00,234.0,8.76,230.0,10.19,12.41,47.59359,-54.27349
2021-09-08 09:14:01+00:00,237.0,8.26,239.0,9.51,12.41,47.59359,-54.27349
2021-09-08 09:24:01+00:00,238.0,7.93,235.0,9.75,12.41,47.59359,-54.27349
2021-09-08 09:34:01+00:00,243.0,8.0,239.0,9.16,12.41,47.59359,-54.27349
2021-09-08 09:44:01+00:00,238.0,7.61,248.0,9.57,12.41,47.59359,-54.27349
2021-09-08 09:54:01+00:00,238.0,7.49,238.0,8.55,12.41,47.59359,-54.27349
2021-09-08 10:04:01+00:00,239.0,8.37,248.0,10.16,12.41,47.59359,-54.27349
2021-09-08 10:14:01+00:00,235.0,8.59,233.0,10.35,13.37,47.59359,-54.27349
2021-09-08 10:24:01+00:00,240.0,8.93,243.0,9.96,13.37,47.59359,-54.27349
2021-09-08 10:34:01+00:00,238.0,8.62,234.0,10.12,13.37,47.59359,-54.27349
2021-09-08 10:44:01+00:00,239.0,8.15,242.0,9.06,13.37,47.59359,-54.27349
2021-09-08 10:54:01+00:00,239.0,7.59,238.0,8.66,13.37,47.59359,-54.27349
2021-09-08 11:04:01+00:00,239.0,8.38,238.0,9.53,13.37,47.59359,-54.27349
2021-09-08 11:14:01+00:00,236.0,7.86,236.0,8.73,13.84,47.59359,-54.27349
2021-09-08 11:24:01+00:00,243.0,7.83,242.0,8.58,13.84,47.59359,-54.27349
2021-09-08 11:34:01+00:00,242.0,8.1,238.0,8.85,13.84,47.59359,-54.27349
2021-09-08 11:44:01+00:00,240.0,7.82,242.0,8.54,13.84,47.59359,-54.27349
2021-09-08 11:54:01+00:00,252.0,7.22,258.0,8.12,13.84,47.59359,-54.27349
2021-09-08 12:04:01+00:00,266.0,6.97,274.0,8.35,13.84,47.59359,-54.27349
2021-09-08 12:14:01+00:00,270.0,11.49,274.0,14.72,13.76,47.59359,-54.27349
2021-09-08 12:24:01+00:00,265.0,7.99,260.0,8.97,13.76,47.59359,-54.27349
2021-09-08 12:34:01+00:00,269.0,8.48,266.0,10.36,13.76,47.59359,-54.27349
2021-09-08 12:44:01+00:00,264.0,8.4,257.0,9.63,13.76,47.59359,-54.27349
2021-09-08 12:54:01+00:00,263.0,10.77,267.0,14.19,13.76,47.59359,-54.27349
2021-09-08 13:04:01+00:00,262.0,11.25,266.0,13.74,13.76,47.59359,-54.27349
2021-09-08 13:14:01+00:00,259.0,9.2,264.0,11.93,13.92,47.59359,-54.27349
2021-09-08 13:24:01+00:00,266.0,8.52,273.0,10.34,13.92,47.59359,-54.27349
2021-09-08 13:34:01+00:00,268.0,6.73,260.0,7.83,13.92,47.59359,-54.27349
2021-09-08 13:44:01+00:00,264.0,8.13,259.0,9.49,13.92,47.59359,-54.27349
2021-09-08 13:54:01+00:00,264.0,8.6,269.0,13.54,13.92,47.59359,-54.27349
2021-09-08 14:04:01+00:00,269.0,8.75,268.0,11.12,13.92,47.59359,-54.27349
2021-09-08 14:14:01+00:00,267.0,7.6,268.0,8.67,13.92,47.59359,-54.27349
2021-09-08 14:24:01+00:00,271.0,9.87,273.0,14.65,13.92,47.59359,-54.27349
2021-09-08 14:34:01+00:00,279.0,7.42,277.0,8.43,13.92,47.59359,-54.27349
2021-09-08 14:44:01+00:00,261.0,7.58,257.0,8.46,13.92,47.59359,-54.27349
2021-09-08 14:54:01+00:00,273.0,12.93,274.0,14.69,13.92,47.59359,-54.27349
2021-09-08 15:04:01+00:00,268.0,11.4,270.0,14.62,13.92,47.59359,-54.27349
2021-09-08 15:14:01+00:00,273.0,12.28,274.0,14.73,14.24,47.59359,-54.27349
2021-09-08 15:24:01+00:00,263.0,9.1,265.0,11.53,14.24,47.59359,-54.27349
2021-09-08 15:34:01+00:00,268.0,7.83,266.0,8.63,14.24,47.59359,-54.27349
2021-09-08 15:44:01+00:00,263.0,8.43,259.0,9.2,14.24,47.59359,-54.27349
2021-09-08 15:54:01+00:00,268.0,11.44,271.0,13.95,14.24,47.59359,-54.27349
2021-09-08 16:04:01+00:00,264.0,9.95,268.0,13.22,14.24,47.59359,-54.27349
2021-09-08 16:14:01+00:00,267.0,9.48,268.0,12.43,13.68,47.59359,-54.27349
2021-09-08 16:24:01+00:00,271.0,12.97,272.0,14.77,13.68,47.59359,-54.27349
2021-09-08 16:34:01+00:00,268.0,8.15,268.0,9.23,13.68,47.59359,-54.27349
2021-09-08 16:44:01+00:00,273.0,8.97,270.0,13.46,13.68,47.59359,-54.27349
2021-09-08 16:54:01+00:00,269.0,11.05,272.0,14.49,13.68,47.59359,-54.27349
2021-09-08 17:04:01+00:00,266.0,9.24,269.0,13.29,13.68,47.59359,-54.27349
2021-09-08 17:14:01+00:00,270.0,8.85,271.0,11.67,14.24,47.59359,-54.27349
2021-09-08 17:24:01+00:00,272.0,11.74,277.0,14.39,14.24,47.59359,-54.27349
2021-09-08 17:34:01+00:00,267.0,10.36,269.0,13.86,14.24,47.59359,-54.27349
2021-09-08 17:44:01+00:00,276.0,8.59,272.0,11.19,14.24,47.59359,-54.27349
2021-09-08 17:54:01+00:00,268.0,9.22,268.0,11.23,14.24,47.59359,-54.27349
2021-09-08 18:04:01+00:00,276.0,9.25,285.0,10.28,14.24,47.59359,-54.27349
2021-09-08 18:14:01+00:00,265.0,8.12,270.0,10.35,14.0,47.59359,-54.27349
2021-09-08 18:24:01+00:00,275.0,9.41,279.0,10.55,14.0,47.59359,-54.27349
2021-09-08 18:34:01+00:00,278.0,10.51,275.0,11.36,14.0,47.59359,-54.27349
2021-09-08 18:44:01+00:00,267.0,8.73,264.0,9.9,14.0,47.59359,-54.27349
2021-09-08 18:54:01+00:00,266.0,8.78,264.0,9.84,14.0,47.59359,-54.27349
2021-09-08 19:04:01+00:00,266.0,8.94,261.0,10.21,14.0,47.59359,-54.27349
2021-09-08 19:14:01+00:00,271.0,7.98,270.0,10.23,13.84,47.59359,-54.27349
2021-09-08 19:24:01+00:00,265.0,6.87,255.0,8.24,13.84,47.59359,-54.27349
2021-09-08 19:34:01+00:00,250.0,8.21,251.0,9.16,13.84,47.59359,-54.27349
2021-09-08 19:44:01+00:00,257.0,7.72,260.0,8.79,13.84,47.59359,-54.27349
2021-09-08 19:54:01+00:00,258.0,7.77,259.0,8.71,13.84,47.59359,-54.27349
2021-09-08 20:04:01+00:00,257.0,5.32,259.0,6.12,13.84,47.59359,-54.27349
2021-09-08 20:14:01+00:00,267.0,6.17,270.0,7.14,13.76,47.59359,-54.27349
2021-09-08 20:24:01+00:00,253.0,6.14,255.0,7.74,13.76,47.59359,-54.27349
2021-09-08 20:34:01+00:00,256.0,5.78,270.0,7.17,13.76,47.59359,-54.27349
2021-09-08 20:44:01+00:00,255.0,6.34,256.0,7.81,13.76,47.59359,-54.27349
2021-09-08 20:54:01+00:00,254.0,5.61,260.0,6.51,13.76,47.59359,-54.27349
2021-09-08 21:04:01+00:00,250.0,6.29,252.0,6.96,13.76,47.59359,-54.27349
2021-09-08 21:14:01+00:00,242.0,5.74,247.0,6.84,13.37,47.59359,-54.27349
2021-09-08 21:24:01+00:00,237.0,5.45,241.0,5.86,13.37,47.59359,-54.27349
2021-09-08 21:34:01+00:00,232.0,5.69,232.0,6.4,13.37,47.59359,-54.27349
2021-09-08 21:44:01+00:00,234.0,6.0,235.0,6.71,13.37,47.59359,-54.27349
2021-09-08 21:54:01+00:00,235.0,5.3,235.0,5.8,13.37,47.59359,-54.27349
2021-09-08 22:04:01+00:00,250.0,5.58,257.0,7.18,13.37,47.59359,-54.27349
2021-09-08 22:14:01+00:00,238.0,5.46,238.0,5.86,12.97,47.59359,-54.27349
2021-09-08 22:24:01+00:00,237.0,5.59,240.0,6.18,12.97,47.59359,-54.27349
2021-09-08 22:34:01+00:00,241.0,5.71,244.0,6.11,12.97,47.59359,-54.27349
2021-09-08 22:44:01+00:00,248.0,6.17,248.0,7.45,12.97,47.59359,-54.27349
2021-09-08 22:54:01+00:00,256.0,6.24,260.0,6.85,12.97,47.59359,-54.27349
2021-09-08 23:04:01+00:00,256.0,5.47,255.0,5.84,12.97,47.59359,-54.27349
2021-09-08 23:14:00+00:00,255.0,5.34,254.0,5.9,12.65,47.59359,-54.27349
2021-09-08 23:24:00+00:00,251.0,6.11,252.0,6.62,12.65,47.59359,-54.27349
2021-09-08 23:34:00+00:00,260.0,6.32,259.0,6.78,12.65,47.59359,-54.27349
2021-09-08 23:44:00+00:00,255.0,5.42,257.0,6.13,12.65,47.59359,-54.27349
2021-09-08 23:54:00+00:00,251.0,3.82,248.0,4.44,12.65,47.59359,-54.27349
